Slayton, MN

1:46 AM CDT on May 29, 2017 (GMT -0500)
Slayton

Weather History for KDVP - December, 2011

Change the Weather History Date:

Monday, December 19, 2011

  Actual Average (KOTG) Record (KOTG)
Temperature  
Mean Temperature 30 °F -  
Max Temperature 37 °F 23 °F 47 °F (1976)
Min Temperature 24 °F 9 °F -28 °F (1983)
Degree Days  
Heating Degree Days 34    
Moisture  
Dew Point 23 °F    
Average Humidity 76    
Maximum Humidity 93    
Minimum Humidity 59    
Precipitation  
Precipitation 0.00 in - - ()
Sea Level Pressure  
Sea Level Pressure 30.10 in    
Wind  
Wind Speed 17 mph (NNW)    
Max Wind Speed 30 mph    
Max Gust Speed 36 mph    
Visibility 10 miles    
Events      
Averages and records for this station are not official NWS values.
T = Trace of Precipitation, MM = Missing Value Source: NWS Daily Summary

Daily Weather History Graph

Daily Weather History Graph

Search for Another Location

Airport or City:

Trip Planner

Search our weather history database for the weather conditions in past years. The results will help you decide how hot, cold, wet, or windy it might be!

Date:

Astronomy

Dec. 19, 2011 Rise Set
Actual Time 7:53 AM CST 4:46 PM CST
Civil Twilight 7:20 AM CST 5:20 PM CST
Nautical Twilight 6:43 AM CST 5:56 PM CST
Astronomical Twilight 6:08 AM CST 6:31 PM CST
Moon 1:57 AM CST (12/19) 12:52 PM CST (12/19)
Length of Visible Light 9h 59m
Length of Day
8h 53m
Waning Crescent, 31% of the Moon is Illuminated
Dec 19
Waning Crescent
Dec 24
New
Jan 1
First Quarter
Jan 9
Full
Jan 16
Last Quarter

Hourly Weather History & Observations

Time (CST) Temp. Windchill Dew Point Humidity Pressure Visibility Wind Dir Wind Speed Gust Speed Precip Events Conditions
12:15 AM 37.4 °F 28.9 °F 27.9 °F 68% 29.83 in 10.0 mi NNW 13.8 mph 18.4 mph N/A   Clear
12:35 AM 36.7 °F 29.9 °F 28.4 °F 72% 29.85 in 10.0 mi NNW 9.2 mph - N/A   Clear
12:55 AM 35.6 °F 27.1 °F 28.9 °F 77% 29.85 in 10.0 mi NNW 12.7 mph - N/A   Clear
1:15 AM 35.8 °F 25.4 °F 30.0 °F 80% 29.85 in 10.0 mi North 18.4 mph - N/A   Clear
1:35 AM 33.6 °F 25.0 °F 29.5 °F 85% 29.86 in 10.0 mi NNW 11.5 mph - N/A   Clear
1:55 AM 32.9 °F 21.3 °F 29.7 °F 88% 29.88 in 10.0 mi NNW 19.6 mph 31.1 mph N/A   Clear
2:15 AM 32.0 °F 20.8 °F 29.3 °F 90% 29.88 in 10.0 mi NNW 17.3 mph 26.5 mph N/A   Clear
2:35 AM 31.1 °F 18.9 °F 29.1 °F 92% 29.90 in 10.0 mi NNW 19.6 mph 27.6 mph N/A   Clear
2:55 AM 31.1 °F 18.6 °F 29.3 °F 93% 29.92 in 10.0 mi North 20.7 mph 24.2 mph N/A   Mostly Cloudy
3:15 AM 30.7 °F 18.5 °F 28.6 °F 92% 29.94 in 10.0 mi NNW 19.6 mph 28.8 mph N/A   Overcast
3:35 AM 29.3 °F 15.0 °F 27.0 °F 91% 29.95 in 10.0 mi NNW 25.3 mph 32.2 mph N/A   Scattered Clouds
3:55 AM 28.4 °F 12.7 °F 24.8 °F 86% 29.96 in 10.0 mi NNW 29.9 mph 35.7 mph N/A   Clear
4:15 AM 28.2 °F 14.2 °F 24.4 °F 86% 29.98 in 10.0 mi North 23.0 mph 33.4 mph N/A   Clear
4:35 AM 27.5 °F 13.5 °F 23.9 °F 86% 29.98 in 10.0 mi North 21.9 mph 32.2 mph N/A   Clear
4:55 AM 27.3 °F 12.7 °F 23.5 °F 86% 29.99 in 10.0 mi North 24.2 mph 33.4 mph N/A   Clear
5:15 AM 27.0 °F 12.8 °F 23.2 °F 86% 30.00 in 10.0 mi North 21.9 mph 27.6 mph N/A   Clear
5:34 AM 26.6 °F 13.1 °F 23.0 °F 86% 30.01 in 10.0 mi North 19.6 mph 28.8 mph N/A   Clear
5:55 AM 26.2 °F 11.9 °F 22.5 °F 86% 30.04 in 10.0 mi North 21.9 mph 29.9 mph N/A   Clear
6:15 AM 26.2 °F 11.9 °F 22.1 °F 84% 30.05 in 10.0 mi North 21.9 mph 28.8 mph N/A   Clear
6:35 AM 25.7 °F 11.9 °F 21.6 °F 84% 30.08 in 10.0 mi NNW 19.6 mph 29.9 mph N/A   Clear
6:55 AM 25.7 °F 12.7 °F 21.2 °F 83% 30.09 in 10.0 mi NNW 17.3 mph 26.5 mph N/A   Clear
7:15 AM 25.5 °F 12.4 °F 21.0 °F 83% 30.10 in 10.0 mi North 17.3 mph 23.0 mph N/A   Clear
7:35 AM 25.2 °F 12.0 °F 20.8 °F 84% 30.10 in 10.0 mi North 17.3 mph 24.2 mph N/A   Clear
7:55 AM 24.8 °F 11.5 °F 20.7 °F 84% 30.12 in 10.0 mi North 17.3 mph 21.9 mph N/A   Clear
8:15 AM 24.8 °F 12.9 °F 20.8 °F 85% 30.13 in 10.0 mi NNW 13.8 mph 19.6 mph N/A   Clear
8:35 AM 24.8 °F 14.0 °F 20.8 °F 85% 30.15 in 10.0 mi NNW 11.5 mph - N/A   Clear
8:55 AM 25.7 °F 14.6 °F 21.0 °F 82% 30.16 in 10.0 mi NNW 12.7 mph - N/A   Clear
9:15 AM 26.1 °F 13.6 °F 21.2 °F 82% 30.17 in 10.0 mi NNW 16.1 mph 19.6 mph N/A   Clear
9:35 AM 27.3 °F 15.2 °F 21.7 °F 80% 30.18 in 10.0 mi North 16.1 mph 23.0 mph N/A   Clear
9:55 AM 28.2 °F 15.5 °F 21.9 °F 77% 30.19 in 10.0 mi North 18.4 mph 24.2 mph N/A   Clear
10:15 AM 29.5 °F 16.8 °F 22.1 °F 74% 30.20 in 10.0 mi NNW 19.6 mph 26.5 mph N/A   Clear
10:35 AM 30.4 °F 17.3 °F 22.6 °F 73% 30.22 in 10.0 mi NNW 21.9 mph 26.5 mph N/A   Clear
10:55 AM 31.1 °F 18.6 °F 22.1 °F 69% 30.22 in 10.0 mi NNW 20.7 mph - N/A   Scattered Clouds
11:15 AM 30.7 °F 18.1 °F 22.5 °F 71% 30.22 in 10.0 mi NNW 20.7 mph 29.9 mph N/A   Mostly Cloudy
11:35 AM 30.7 °F 17.5 °F 22.3 °F 71% 30.21 in 10.0 mi North 23.0 mph 28.8 mph N/A   Mostly Cloudy
11:55 AM 32.0 °F 21.2 °F 23.0 °F 69% 30.21 in 10.0 mi NNW 16.1 mph 21.9 mph N/A   Mostly Cloudy
12:22 PM 32.7 °F 21.8 °F 21.4 °F 63% 30.20 in 10.0 mi NNW 17.3 mph 25.3 mph N/A   Scattered Clouds
12:35 PM 32.7 °F 21.4 °F 20.8 °F 62% 30.20 in 10.0 mi NNW 18.4 mph 25.3 mph N/A   Scattered Clouds
12:55 PM 32.7 °F 20.1 °F 20.5 °F 61% 30.20 in 10.0 mi North 23.0 mph 27.6 mph N/A   Clear
1:15 PM 32.0 °F 20.1 °F 20.7 °F 63% 30.20 in 10.0 mi NNW 19.6 mph - N/A   Clear
1:35 PM 32.0 °F 20.8 °F 20.1 °F 62% 30.19 in 10.0 mi North 17.3 mph - N/A   Clear
1:55 PM 32.9 °F 21.3 °F 20.1 °F 59% 30.19 in 10.0 mi North 19.6 mph 26.5 mph N/A   Clear
2:15 PM 32.9 °F 21.6 °F 20.3 °F 60% 30.18 in 10.0 mi North 18.4 mph 26.5 mph N/A   Clear
2:34 PM 32.7 °F 22.1 °F 19.8 °F 59% 30.18 in 10.0 mi NNW 16.1 mph 23.0 mph N/A   Clear
2:55 PM 32.4 °F 20.0 °F 19.4 °F 59% 30.19 in 10.0 mi North 21.9 mph 25.3 mph N/A   Clear
3:15 PM 32.0 °F 20.5 °F 19.4 °F 60% 30.20 in 10.0 mi North 18.4 mph 23.0 mph N/A   Clear
3:35 PM 32.0 °F 20.8 °F 20.1 °F 62% 30.20 in 10.0 mi North 17.3 mph 21.9 mph N/A   Clear
3:55 PM 31.5 °F 21.4 °F 19.9 °F 62% 30.22 in 10.0 mi North 13.8 mph 20.7 mph N/A   Clear
4:15 PM 30.2 °F 21.9 °F 19.8 °F 65% 30.22 in 10.0 mi North 9.2 mph - N/A   Clear
4:35 PM 28.6 °F 19.9 °F 20.1 °F 71% 30.24 in 10.0 mi North 9.2 mph - N/A   Clear
4:55 PM 27.7 °F 17.6 °F 19.9 °F 73% 30.24 in 10.0 mi North 11.5 mph - N/A   Clear
5:15 PM 26.2 °F 18.6 °F 19.6 °F 76% 30.25 in 10.0 mi North 6.9 mph - N/A   Clear
5:35 PM 25.5 °F 18.7 °F 19.2 °F 77% 30.26 in 10.0 mi North 5.8 mph - N/A   Clear
5:55 PM 24.4 °F 18.6 °F 19.0 °F 80% 30.27 in 10.0 mi North 4.6 mph - N/A   Clear
6:15 PM 24.3 °F 19.9 °F 19.0 °F 80% 30.27 in 10.0 mi North 3.5 mph - N/A   Clear
6:35 PM 23.7 °F - 18.7 °F 81% 30.28 in 10.0 mi Calm Calm - N/A   Clear
7:15 PM 21.0 °F - 17.4 °F 86% 30.28 in 10.0 mi Calm Calm - N/A   Scattered Clouds
7:35 PM 20.3 °F 15.4 °F 16.9 °F 87% 30.27 in 10.0 mi NW 3.5 mph - N/A   Mostly Cloudy
7:55 PM 20.7 °F - 17.2 °F 87% 30.27 in 10.0 mi Calm Calm - N/A   Scattered Clouds
8:15 PM 19.0 °F 13.9 °F 16.0 °F 88% 30.27 in 10.0 mi WNW 3.5 mph - N/A   Scattered Clouds
8:35 PM 18.5 °F 13.3 °F 15.8 °F 89% 30.27 in 10.0 mi West 3.5 mph - N/A   Clear
8:55 PM 17.8 °F 10.9 °F 14.9 °F 88% 30.27 in 10.0 mi West 4.6 mph - N/A   Clear
9:15 PM 17.6 °F 10.7 °F 14.9 °F 89% 30.28 in 10.0 mi WNW 4.6 mph - N/A   Scattered Clouds
9:35 PM 18.5 °F 13.3 °F 16.3 °F 91% 30.27 in 10.0 mi WNW 3.5 mph - N/A   Scattered Clouds
9:55 PM 16.7 °F 9.6 °F 14.0 °F 89% 30.27 in 10.0 mi WNW 4.6 mph - N/A   Scattered Clouds
10:15 PM 15.1 °F 9.4 °F 12.7 °F 90% 30.26 in 10.0 mi NW 3.5 mph - N/A   Scattered Clouds
10:35 PM 15.4 °F 8.1 °F 13.1 °F 90% 30.26 in 10.0 mi West 4.6 mph - N/A   Clear
10:55 PM 16.2 °F 9.0 °F 14.0 °F 91% 30.26 in 10.0 mi West 4.6 mph - N/A   Clear
11:15 PM 15.8 °F 8.6 °F 13.6 °F 91% 30.25 in 10.0 mi WNW 4.6 mph - N/A   Clear
11:35 PM 14.9 °F 6.1 °F 13.3 °F 93% 30.25 in 10.0 mi WNW 5.8 mph - N/A   Clear